Flag for U.S.A. Weather past 2 weeks in Buffalo, New York, U.S.A.

Now
50 °F

Passing clouds.


Feels Like: 50 °F
Forecast: 49 / 60 °F
Wind: No wind

Location: Greater Buffalo International Airport

Current Time: Sep 18, 2014 at 7:56:12 AM

Latest Report: Sep 18, 2014 at 6:54 AM


Visibility: 10 mi

Pressure: 30.03 "Hg

Humidity: 89%

Dew point: 47 °F

Location of BuffaloLocation

Historic Weather in Buffalo — Graph

°F

Buffalo temperature yesterday

Maximum temperature yesterday: 66 °F (at 4:54 PM)
Minimum temperature yesterday: 48 °F (at 5:54 AM)
Average temperature yesterday: 57 °F

Past Weeks' High & Low Weather Summary

 TemperatureHumidityPressure
High86 °F (Sep 5, 1:54 PM)94% (Sep 6, 7:54 AM)30.37 "Hg (Sep 6, 7:54 AM)
Low43 °F (Sep 14, 6:54 AM)37% (Sep 7, 3:54 PM)29.59 "Hg (Sep 11, 3:54 AM)
Average63 °F70%30.08 "Hg
* Reported Sep 3 6:54 AM — Sep 18 6:54 AM, Buffalo, Weather by CustomWeather, © 2014

Note: Actual official high and low records may vary slightly from our data, if they occured in-between our weather recording intervals... More about our weather records

Advertising

Buffalo weather history for previous 24 hours

 ConditionsComfort  
Time TempWeatherWind HumidityBarometerVisibility
6:54 AM
Sep 18
50 °FPassing clouds.No wind89%30.03 "Hg10 mi
5:54 AM51 °FPassing clouds.5 mph86%30.00 "Hg10 mi
4:54 AM50 °FPassing clouds.5 mph89%29.99 "Hg10 mi
3:54 AM51 °FPassing clouds.5 mph89%29.98 "Hg10 mi
2:54 AM51 °FPassing clouds.5 mph89%29.98 "Hg10 mi
1:54 AM52 °FPassing clouds.7 mph86%29.99 "Hg10 mi
12:54 AM53 °FPassing clouds.5 mph86%29.98 "Hg10 mi
11:54 PM
Sep 17
53 °FPassing clouds.6 mph83%29.98 "Hg10 mi
10:54 PM55 °FPassing clouds.6 mph77%29.98 "Hg10 mi
9:54 PM58 °FPassing clouds.6 mph67%29.98 "Hg10 mi
8:54 PM59 °FPassing clouds.6 mph64%29.97 "Hg10 mi
7:54 PM61 °FPartly sunny.7 mph62%29.97 "Hg10 mi
6:54 PM62 °FPartly sunny.8 mph60%29.97 "Hg10 mi
5:54 PM64 °FPassing clouds.15 mph54%29.97 "Hg10 mi
4:54 PM66 °FPassing clouds.14 mph50%29.97 "Hg10 mi
3:54 PM65 °FPassing clouds.14 mph52%29.97 "Hg10 mi
2:54 PM65 °FPassing clouds.14 mph51%29.98 "Hg10 mi
1:54 PM64 °FScattered clouds.13 mph47%29.99 "Hg10 mi
12:54 PM65 °FPassing clouds.13 mph47%30.00 "Hg10 mi
11:54 AM62 °FScattered clouds.13 mph58%30.02 "Hg10 mi
10:54 AM61 °FScattered clouds.13 mph60%30.03 "Hg10 mi
9:54 AM58 °FPassing clouds.6 mph72%30.04 "Hg10 mi
8:54 AM53 °FPassing clouds.6 mph80%30.05 "Hg10 mi
7:54 AM50 °FPassing clouds.6 mph86%30.06 "Hg10 mi
Weather by CustomWeather, © 2014

See weather overviewHow to use our weather pages